Location: Bergheim
(50.9593°N, 6.6400°E)
Time: 09:34:51
(UTC+02:00)

ISS - Pass Details

Date: 21 May 2021
Orbit: 417 x 422 km, 51.6° (Epoch: 13 June)

Event Time Altitude Azimuth Distance (km) Brightness Sun altitude
Rises 00:30:48 0° 282° (WNW) 2,369 0.4 -17.7°
Reaches altitude 10° 00:32:54 10° 281° (WNW) 1,504 -0.6 -17.8°
Maximum altitude 00:36:17 84° 194° (SSW) 428 -3.9 -17.9°
Enters shadow 00:37:16 43° 110° (ESE) 602 -3.3 -17.9°
